{"data":{"norad_id":63903,"intl_designator":"2025-095P","name":"STARLINK-34097","alt_names":[],"object_type":"PAYLOAD","status":"ACTIVE","operator":null,"country":"US","launch_date":"2025-05-10","launch_site_code":"AFETR","launch_vehicle":null,"mission":null,"orbit_class":"UNKNOWN","rcs_meters":null,"size_class":null,"mass_kg":null,"dimensions":null,"purposes":["comms"],"wikipedia_slug":null,"has_3d_model":false,"image_url":null,"decayed_at":null,"tle_current":{"epoch":"2026-05-25T03:43:24.134016Z","epoch_age_seconds":51866,"freshness":"FRESH","line1":"1 63903U 25095P   26145.15514044  .00012742  00000+0  47165-3 0  9995","line2":"2 63903  43.0012 104.2531 0001393 273.9295  86.1398 15.27587673 59473","mean_motion":15.27587673,"eccentricity":0.0001393,"inclination_deg":43.0012,"raan_deg":104.2531,"arg_perigee_deg":273.9295,"mean_anomaly_deg":86.1398,"bstar":0.00047165,"rev_number":5947,"period_min":94.26627521627,"perigee_km":482.0703603908,"apogee_km":483.98188043615,"semimajor_km":6861.1631204135,"source":"CELESTRAK","updated_at":"2026-05-25T13:38:20.177634Z"}}}